[[{"header":{"parameterUnit":"m.s-1","parameterCategory":1,"la1":30.2991,"la2":30.254,"lo1":-89.0895,"lo2":-89.0444,"dy":0.0017,"dx":0.0017,"nx":28,"ny":28,"refTime":"2024-06-09T03:00:00:Z","depth":0,"parameterNumber":2,"parameterNumberName":"U-component_of_WINDS"},"data":[0,0,0,0,0,0,0,0,0,0,0,0,0,0,0,0,0,0,0,0,0,0,0,0,0,0,0,0,0,0,0,0,0,0,0,0,0,0,0,0,0,0,0,0,0,0,0,0,0,0,0,0,0,0,0,0,0,0,2.6524,2.6525,0,2.6578,2.6579,2.6579,2.6519,2.6517,2.6515,2.6512,2.6568,2.6571,2.6575,0,0,0,0,0,0,0,0,0,0,0,0,0,2.6367,2.6371,2.6524,2.6525,2.6525,2.6578,2.6579,2.6579,2.652,2.6517,2.6514,2.6511,2.6567,2.6571,2.6575,0,0,0,0,0,0,0,0,0,0,0,0,0,2.643,2.6372,2.6524,2.6502,2.65,2.6578,2.6579,2.6579,2.652,2.6517,2.6513,2.651,2.6565,2.657,2.6576,2.6677,0,0,2.6592,2.6595,0,0,0,0,0,0,0,0,2.6426,2.6436,2.6504,2.6504,2.6502,2.6538,2.6543,2.6612,2.6521,2.6513,2.6512,2.6508,2.6561,2.6566,2.6584,2.668,2.6682,2.6593,2.6596,2.6598,2.66,0,0,0,0,0,0,0,2.6422,2.6433,2.6545,2.6505,2.6504,2.6489,2.6494,2.6556,2.6555,2.6513,2.6509,2.6516,2.6559,2.6579,2.6585,2.6683,2.6593,2.6597,2.6601,2.6603,2.6861,2.6864,0,0,0,0,0,0,2.642,2.643,2.6544,2.6547,2.6455,2.6494,2.65,2.653,2.6554,2.6555,2.6519,2.6513,2.6571,2.6579,2.6587,2.6704,2.6598,2.6603,2.6606,2.6857,2.6862,2.6866,0,0,0,0,0,0,2.6417,2.6431,2.6541,2.6487,2.65,2.6501,2.6535,2.6533,2.6552,2.6559,2.6558,2.6539,2.6569,2.6579,2.6654,2.6705,2.6606,2.6611,2.6853,2.6859,2.6864,2.6941,0,0,0,0,0,0,2.6413,2.643,2.647,2.6489,2.6503,2.6609,2.6538,2.6536,2.6562,2.6555,2.6577,2.6578,2.6567,2.6647,2.666,2.6711,2.6615,2.6849,2.6856,2.6862,2.6934,2.6949,2.6961,0,0,0,0,0,2.6408,2.649,2.6472,2.6486,2.6552,2.6612,2.6621,2.6606,2.6566,2.6605,2.6608,2.6577,2.6698,2.6655,2.6669,2.6722,2.6845,2.6854,2.6862,2.6928,2.6946,2.6961,0,0,0,0,0,0,2.6478,2.6492,2.6472,2.6564,2.6587,2.6602,2.6651,2.6626,2.6662,2.6653,2.6634,2.664,2.6719,2.6729,2.668,2.682,2.6765,2.6776,2.6811,2.6827,2.6841,2.6836,2.6619,0,0,0,0,0,2.6504,2.6552,2.6562,2.6642,2.6654,2.6651,2.6676,2.6663,2.6686,2.6696,2.6705,2.6729,2.6772,2.6801,2.6841,2.6936,2.6938,2.6979,2.6993,2.7004,2.7013,2.706,2.7078,2.6893,2.6892,2.6892,0,0,2.6559,2.6573,2.6604,2.6656,2.6673,2.6721,2.6659,2.6715,2.675,2.6705,2.6775,2.6783,2.6808,2.6893,2.693,2.6903,2.7065,2.7014,2.7023,2.7026,2.7071,2.7088,2.7104,2.6898,2.6897,2.6896,0,0,2.6682,2.6699,2.6765,2.6782,2.6808,2.6804,2.682,2.6839,2.6841,2.6912,2.6878,2.692,2.6995,2.7013,2.7032,2.716,2.7131,2.7174,2.7243,2.729,2.7304,2.7317,2.7359,2.7375,2.7184,2.7184,2.7184,0,2.6747,2.6819,2.6802,2.6859,2.6881,2.6842,2.6907,2.6925,2.6963,2.6979,2.6948,2.7038,2.7053,2.7139,2.717,2.7188,2.7204,2.717,2.7304,2.7316,2.7328,2.7368,2.7384,2.7188,2.7188,2.7187,2.7187,0,2.6895,2.6946,2.6996,2.7031,2.706,2.7121,2.7112,2.7143,2.7127,2.7126,2.7197,2.7213,2.7254,2.7274,2.726,2.7358,2.7339,2.7307,2.725,2.735,2.7387,2.7403,2.7195,2.7194,2.7192,2.7191,0,0,2.7065,2.7088,2.7107,2.7121,2.7145,2.7183,2.7242,2.7281,2.7306,2.7333,2.7379,2.7443,2.7411,2.7433,2.742,2.7462,2.7557,2.7423,2.7423,2.7445,2.7662,2.7684,2.7703,2.7539,2.7542,2.7544,2.7659,0,2.7186,2.7286,2.7271,2.7367,2.7412,2.7374,2.7424,2.7444,2.7445,2.7482,2.7483,2.7527,2.7484,2.7496,2.7535,2.7537,2.76,2.7529,2.758,2.7582,2.7572,2.7723,2.7747,2.7854,2.7674,2.7676,2.7678,0,2.734,2.7371,2.7471,2.7485,2.7503,2.7549,2.7581,2.7619,2.7639,2.7636,2.766,2.7639,2.7695,2.7639,2.7715,2.7667,2.7687,2.7691,2.7695,2.7697,2.7634,2.7726,2.7889,2.7904,2.7701,2.7699,2.7698,0,2.7449,2.7516,2.7583,2.7597,2.7616,2.7648,2.7658,2.7675,2.7699,2.7728,2.7742,2.7778,2.7797,2.7824,2.7813,2.7774,2.789,2.7834,2.7887,2.7887,2.7911,2.791,2.8077,2.793,2.7929,2.7929,2.7929,0,2.7584,2.7646,2.7632,2.7674,2.7741,2.7723,2.779,2.7795,2.781,2.7851,2.7822,2.786,2.7844,2.7881,2.7872,2.7934,2.7944,2.7942,2.7938,2.7943,2.7943,2.7954,2.7945,2.7933,2.7932,2.7932,2.7931,0,2.7717,2.771,2.7781,2.7792,2.7797,2.7845,2.7855,2.7892,2.789,2.7942,2.7953,2.795,2.7991,2.7983,2.803,2.8024,2.81,2.809,2.8093,2.8089,2.8142,2.8136,2.832,2.8341,2.8183,2.8185,2.8186,0,2.7802,2.7848,2.7864,2.7889,2.79,2.7941,2.7964,2.7948,2.7973,2.7998,2.8033,2.8072,2.8102,2.817,2.8171,2.8206,2.8193,2.8255,2.8198,2.82,2.819,2.8186,2.8189,2.8266,2.8268,2.8269,2.827,0,2.7953,2.7946,2.7981,2.8014,2.8041,2.8067,2.8089,2.8111,2.8097,2.8126,2.8168,2.8191,2.8237,2.8275,2.8307,2.8316,2.829,2.8289,2.8302,2.8306,2.8304,2.8302,2.8121,2.8284,2.8283,2.8282,2.8281,2.828,2.8062,2.81,2.8116,2.8154,2.8169,2.819,2.8225,2.8226,2.8261,2.8296,2.8285,2.8332,2.8349,2.8388,2.8401,2.8436,2.8413,2.8433,2.8438,2.8442,2.8447,2.8301,2.8442,2.8442,2.8442,2.8441,2.8441,0,2.8208,2.8216,2.8251,2.8282,2.8312,2.8286,2.8308,2.8334,2.8376,2.8393,2.8423,2.8469,2.8506,2.8509,2.8543,2.857,2.8559,2.8579,2.8576,2.8577,2.8468,2.8451,2.8588,2.8588,2.8588,2.8588,2.8587,2.8587,2.8287,2.8349,2.8344,2.8412,2.8419,2.8464,2.8479,2.8497,2.8511,2.8564,2.8593,2.8595,2.8606,2.864,2.8671,2.8671,2.8684,2.8708,2.8703,2.86,2.8586,2.8572,2.8556,2.8712,2.8712,2.8809,2.881,2.8811]},{"header":{"parameterUnit":"m.s-1","parameterCategory":1,"la1":30.2991,"la2":30.254,"lo1":-89.0895,"lo2":-89.0444,"dy":0.0017,"dx":0.0017,"nx":28,"ny":28,"refTime":"2024-06-09T03:00:00:Z","depth":0,"parameterNumber":3,"parameterNumberName":"V-component_of_WINDS"},"data":[0,0,0,0,0,0,0,0,0,0,0,0,0,0,0,0,0,0,0,0,0,0,0,0,0,0,0,0,0,0,0,0,0,0,0,0,0,0,0,0,0,0,0,0,0,0,0,0,0,0,0,0,0,0,0,0,0,0,2.16,2.1601,0,2.1719,2.1721,2.1722,2.1718,2.1717,2.1715,2.1714,2.1832,2.1836,2.1841,0,0,0,0,0,0,0,0,0,0,0,0,0,2.1363,2.1367,2.16,2.1601,2.1603,2.1719,2.1721,2.1722,2.1719,2.1717,2.1715,2.1713,2.183,2.1836,2.1841,0,0,0,0,0,0,0,0,0,0,0,0,0,2.1472,2.1368,2.16,2.1615,2.1618,2.1719,2.1721,2.1723,2.1719,2.1717,2.1714,2.1712,2.1828,2.1835,2.1842,2.1934,0,0,2.1863,2.1866,0,0,0,0,0,0,0,0,2.1466,2.1481,2.1611,2.1614,2.1617,2.1702,2.168,2.1793,2.172,2.1681,2.1714,2.1711,2.179,2.18,2.1828,2.194,2.1945,2.1864,2.1868,2.1871,2.1873,0,0,0,0,0,0,0,2.1458,2.1476,2.1647,2.1613,2.1617,2.1614,2.1627,2.1702,2.1747,2.1684,2.1684,2.1698,2.1791,2.1821,2.183,2.1946,2.1864,2.187,2.1874,2.1877,2.2136,2.2139,0,0,0,0,0,0,2.1448,2.1469,2.1643,2.1651,2.1534,2.162,2.1635,2.1677,2.1747,2.1755,2.17,2.1698,2.181,2.1822,2.1835,2.1945,2.1871,2.1878,2.1882,2.2133,2.2137,2.214,0,0,0,0,0,0,2.1443,2.1464,2.1638,2.156,2.1582,2.1627,2.1674,2.1681,2.171,2.1759,2.1767,2.1723,2.1809,2.1825,2.1909,2.1949,2.1881,2.1887,2.213,2.2134,2.2138,2.2168,0,0,0,0,0,0,2.1436,2.1462,2.1499,2.1561,2.1586,2.1713,2.1677,2.1685,2.1723,2.1721,2.1782,2.179,2.1808,2.1898,2.1916,2.1958,2.1893,2.2127,2.2132,2.2137,2.2164,2.2172,2.218,0,0,0,0,0,2.1428,2.1503,2.1501,2.1522,2.1634,2.1715,2.173,2.175,2.1726,2.1763,2.1793,2.1788,2.1942,2.1907,2.1927,2.1971,2.2124,2.2131,2.2136,2.216,2.2171,2.218,0,0,0,0,0,0,2.1444,2.1511,2.151,2.1608,2.1656,2.1715,2.1762,2.1761,2.1817,2.1812,2.1834,2.1847,2.1931,2.1959,2.192,2.2062,2.203,2.204,2.2041,2.2052,2.206,2.2051,2.1899,0,0,0,0,0,2.1459,2.1521,2.1575,2.1656,2.168,2.1717,2.1753,2.1764,2.1815,2.1835,2.1872,2.1919,2.1978,2.2016,2.2073,2.2167,2.2179,2.2207,2.2215,2.2222,2.223,2.2279,2.2292,2.2159,2.2159,2.2159,0,0,2.149,2.1534,2.1572,2.166,2.1699,2.176,2.1734,2.1801,2.1846,2.1844,2.1926,2.1954,2.2009,2.2097,2.2138,2.2124,2.2269,2.2229,2.2234,2.2239,2.2287,2.2299,2.231,2.2164,2.2163,2.2162,0,0,2.1578,2.1619,2.169,2.1729,2.1788,2.1811,2.1827,2.1886,2.1905,2.1988,2.1987,2.2039,2.2141,2.2179,2.2212,2.2311,2.2307,2.2328,2.2372,2.2419,2.243,2.2439,2.2473,2.2485,2.2337,2.2337,2.2337,0,2.1609,2.1704,2.1725,2.1792,2.183,2.1831,2.1901,2.1937,2.2011,2.2036,2.2019,2.2144,2.2181,2.2278,2.2301,2.2328,2.2346,2.2322,2.2427,2.2436,2.2445,2.2477,2.249,2.2339,2.2339,2.2339,2.2338,0,2.1738,2.1804,2.1853,2.1925,2.1968,2.2036,2.2065,2.2105,2.2112,2.2136,2.2218,2.2262,2.2327,2.235,2.2358,2.2447,2.2436,2.2422,2.239,2.246,2.249,2.2503,2.2342,2.2341,2.2341,2.234,0,0,2.1842,2.1923,2.1941,2.1972,2.2036,2.2086,2.2152,2.2217,2.225,2.23,2.2354,2.2439,2.2426,2.2463,2.2474,2.2516,2.2589,2.2497,2.2498,2.2511,2.2687,2.2696,2.2711,2.2586,2.2589,2.2591,2.2682,0,2.1936,2.2056,2.2076,2.218,2.2239,2.224,2.2297,2.2341,2.2365,2.2416,2.2441,2.2501,2.248,2.2502,2.2543,2.2571,2.2624,2.2565,2.2635,2.2638,2.2622,2.2727,2.2738,2.2822,2.2694,2.2696,2.2698,0,2.2063,2.2116,2.2227,2.228,2.2306,2.2358,2.2416,2.2466,2.2515,2.2528,2.2568,2.2574,2.264,2.2605,2.2695,2.2654,2.2683,2.2701,2.2705,2.2712,2.2672,2.2736,2.285,2.2862,2.2717,2.2716,2.2714,0,2.2125,2.2225,2.2304,2.2331,2.2395,2.2431,2.2459,2.2505,2.2542,2.2592,2.2615,2.2672,2.2703,2.2746,2.2766,2.2739,2.2854,2.2821,2.2865,2.2865,2.289,2.2888,2.3009,2.291,2.2909,2.2909,2.2909,0,2.2228,2.2295,2.2332,2.238,2.2454,2.2475,2.2547,2.2574,2.2614,2.2666,2.2669,2.2717,2.274,2.2791,2.2806,2.2877,2.2891,2.2902,2.2905,2.2902,2.29,2.2921,2.2916,2.2913,2.2912,2.2911,2.2911,0,2.2311,2.2339,2.2424,2.2478,2.2492,2.2544,2.2589,2.2634,2.2657,2.2722,2.2738,2.2772,2.2832,2.2855,2.2928,2.2938,2.3019,2.3018,2.3003,2.3004,2.3047,2.3042,2.3185,2.3204,2.3093,2.3094,2.3095,0,2.2375,2.2426,2.2485,2.252,2.255,2.2607,2.2644,2.2664,2.2702,2.2759,2.2797,2.2856,2.2905,2.2999,2.3029,2.3084,2.3084,2.313,2.3092,2.3086,2.3083,2.3079,2.3083,2.3137,2.3138,2.3139,2.314,0,2.2484,2.2495,2.2549,2.2607,2.265,2.2697,2.2742,2.277,2.2797,2.2839,2.29,2.2937,2.3011,2.3069,2.3125,2.3151,2.3149,2.3151,2.3164,2.3161,2.315,2.3155,2.3021,2.3148,2.3147,2.3147,2.3146,2.3146,2.2559,2.2603,2.2651,2.271,2.2746,2.2788,2.2832,2.286,2.2912,2.2974,2.2982,2.3047,2.3091,2.3165,2.3194,2.3243,2.3231,2.325,2.3255,2.3259,2.3261,2.3142,2.3253,2.3253,2.3253,2.3253,2.3253,0,2.2667,2.2697,2.2751,2.2814,2.286,2.2855,2.2903,2.2941,2.2999,2.3041,2.3088,2.3157,2.3212,2.3246,2.3301,2.3334,2.3334,2.3347,2.3345,2.335,2.327,2.3253,2.3346,2.3346,2.3346,2.3346,2.3346,2.3346,2.2729,2.2804,2.2819,2.2911,2.294,2.3005,2.3033,2.307,2.3103,2.318,2.3226,2.3248,2.3286,2.3343,2.3393,2.3401,2.3421,2.3435,2.3442,2.3366,2.3356,2.3347,2.3331,2.3439,2.344,2.3518,2.3519,2.352]}]]